Regional Weather Roundup
Issued by NWS

Home | Current Version | Previous Version | Text Only | Print | Product List | Glossary Off
Versions: 1 2 3 4 5 6 7 8 9 10 11 12 13 14 15 16 17 18 19 20 21 22 23 24 25 26 27 28 29 30 31 32 33 34 35 36 37 38 39 40 41 42 43 44 45 46 47 48 49 50

000
ASUS43 KMKX 010111
RWRWI

WISCONSIN REGIONAL WEATHER ROUNDUP
NATIONAL WEATHER SERVICE MILWAUKEE/SULLIVAN WI
700 PM CST SAT JAN 31 2015

NOTE: "FAIR" INDICATES FEW OR NO CLOUDS BELOW 12,000 FEET WITH NO
SIGNIFICANT WEATHER AND/OR OBSTRUCTIONS TO VISIBILITY.

WIZ001-002-006>008-014>016-023>028-010200-
NORTHWEST WISCONSIN

CITY           SKY/WX    TMP DP  RH WIND       PRES   REMARKS
SUPERIOR ARPT  CLOUDY    16   2  52 NE12      30.34S WCI   3
ASHLAND        MOCLDY    14   4  64 N12       30.34R WCI   0
HAYWARD        MOCLDY    16   5  62 NE12      30.27R WCI   3
SIREN          CLOUDY    20   7  56 NE12G20   30.25S WCI   8
CUMBERLAND     CLOUDY    21  10  63 NE10      30.21S WCI  10
RICE LAKE      CLOUDY    23  12  63 NE13G18   30.23S WCI  11
CHETEK         CLOUDY    22  12  65 NE10G16   30.22S WCI  11
LADYSMITH      CLOUDY    19  10  69 NE13      30.24F WCI   6
EAU CLAIRE     CLOUDY    25  15  66 NE10      30.20S WCI  15
MENOMONIE      CLOUDY    26  16  64 NE9       30.21R WCI  17
NEW RICHMOND   CLOUDY    24  15  66 NE9       30.21S WCI  15
OSCEOLA        CLOUDY    26  13  58 NE13      30.25R WCI  14
$$

WIZ003>005-009-010-017-018-010200-
NORTH CENTRAL WISCONSIN

CITY           SKY/WX    TMP DP  RH WIND       PRES   REMARKS
MANITOWISH WTR CLOUDY    13   6  76 NE7       30.23S WCI   2
ARBOR VITAE    FLURRIES  17  10  73 NE8       30.22F WCI   6
WOODRUFF       FLURRIES  17  10  73 NE8       30.22F WCI   6
RHINELANDER    PTCLDY    15   7  70 NE7       30.22R WCI   5
EAGLE RIVER    CLOUDY    14   5  67 N9        30.22S WCI   1
LAND O LAKES   CLOUDY    13   8  78 N7        30.24S WCI   3
PHILLIPS       CLOUDY    13   7  74 N8        30.22S WCI   2
TOMAHAWK       CLOUDY    17   9  68 NE6       30.21S WCI   9
MEDFORD        CLOUDY    20  11  68 NE10      30.18F WCI   9
MERRILL        CLOUDY    21  13  70 NE8       30.20S WCI  12
$$

WIZ029-030-035-036-043>047-010200-
CENTRAL WISCONSIN

CITY           SKY/WX    TMP DP  RH WIND       PRES   REMARKS
WAUSAU         CLOUDY    24  15  68 NE6       30.18S WCI  17
MOSINEE        CLOUDY    25  21  86 N6        30.19S WCI  18
MARSHFIELD     CLOUDY    25  16  68 NE12      30.18S WCI  14
STEVENS POINT  CLOUDY    24  17  74 NE7       30.20R WCI  16
WAUPACA        CLOUDY    29  20  68 NE3       30.21S
WAUTOMA        CLOUDY    28  21  75 CALM      30.21R
WISC RAPIDS    CLOUDY    27  17  66 NE5       30.20S WCI  22
CAMP DOUGLAS   CLOUDY    28  25  88 VRB3      30.18R
$$

WIZ011>013-019>022-031-037>040-048>050-010200-
NORTHEAST WISCONSIN

CITY           SKY/WX    TMP DP  RH WIND       PRES   REMARKS
ANTIGO         CLOUDY    19  12  73 N8        30.19S WCI   9
SHAWANO        CLOUDY    28  19  66 NE10      30.23S WCI  19
OCONTO         CLOUDY    23  18  81 CALM      30.26R
STURGEON BAY   CLOUDY    21  12  68 N17       30.27R WCI   7
GREEN BAY      CLOUDY    27  20  75 NE6       30.23R WCI  20
MANITOWOC      CLOUDY    27  20  75 N3        30.23R
APPLETON       CLOUDY    27  18  69 VRB5      30.21R WCI  21
CLINTONVILLE   CLOUDY    28  19  69 NE7       30.22R WCI  21
OSHKOSH        CLOUDY    27  19  72 E5        30.21R WCI  22
$$

WIZ032>034-041-042-053>061-010200-
SOUTHWEST WISCONSIN

CITY           SKY/WX    TMP DP  RH WIND       PRES   REMARKS
LA CROSSE      NOT AVBL
SPARTA         CLOUDY    28  21  74 NE9       30.19S WCI  20
VIROQUA        CLOUDY    28  25  87 NE10      30.12F WCI  19
BOSCOBEL       LGT SNOW  32  25  75 E6        30.15S WCI  26
PRAIRIE DU CHI MIX PCPN  30  27  87 CALM      30.14S
PLATTEVILLE    CLOUDY    31  29  91 NE6       30.12S WCI  25
$$

WIZ056-057-062-063-064-067-068-010200-
SOUTH CENTRAL WISCONSIN

CITY           SKY/WX    TMP DP  RH WIND       PRES   REMARKS
REEDSBURG      CLOUDY    28  22  78 NE7       30.16S WCI  21
BARABOO/DELLS  CLOUDY    28  22  78 NE7       30.16S WCI  21
LONE ROCK      LGT SNOW  31  24  75 NE9       30.16S WCI  23
MINERAL POINT  LGT SNOW  32  30  93 E5        30.12S WCI  27
MADISON        FLURRIES  30  22  72 NE9       30.17R WCI  22
MIDDLETON      CLOUDY    32  25  74 NE8       30.16S WCI  25
WATERTOWN      CLOUDY    29  23  77 N8        30.17R WCI  21
MONROE         CLOUDY    32  27  80 E3        30.13S
JANESVILLE     CLOUDY    34  27  75 E8        30.15S WCI  27
$$

WIZ051-052-058>065-066-070>072-010200-
SOUTHEAST WISCONSIN

CITY           SKY/WX    TMP DP  RH WIND       PRES   REMARKS
MILWAUKEE      CLOUDY    32  22  66 NE9       30.19R WCI  24
WAUKESHA       CLOUDY    28  21  74 NE10      30.18R WCI  19
MILWAUKEE/TIMM NOT AVBL
RACINE         CLOUDY    32  24  72 NE8       30.20R WCI  25
BURLINGTON     CLOUDY    30  23  74 E3        30.17R
KENOSHA        CLOUDY    32  25  75 E6        30.18R WCI  26
FOND DU LAC    CLOUDY    27  19  72 NE8       30.21R WCI  19
SHEBOYGAN      CLOUDY    27  19  72 NE9       30.22R WCI  18
WEST BEND      CLOUDY    28  21  74 NE10      30.19S WCI  19
JUNEAU         CLOUDY    27  20  77 N10       30.20R WCI  17
$$

LSZ147-162-010200-
LAKE SUPERIOR

STATION/POSITION TIME  TEMP    WIND        PRES    WAVE
                       AIR SEA DIR/SP/G            HT/PER
                 (UTC) (F)     (DEG/KT/KT) (MB)    (FT/S)
DEVILS ISLAND    0100   17      20/ 15/ 18 1029.8R
PORT WING        0000   19      60/ 12/ 19 1027.1
SAXON HARBOR     0000   19      40/ 14/ 16 1026.4R
$$

LMZ867-665-643>646-010200-
LAKE MICHIGAN

STATION/POSITION TIME  TEMP    WIND        PRES    WAVE
                       AIR SEA DIR/SP/G            HT/PER
                 (UTC) (F)     (DEG/KT/KT) (MB)    (FT/S)
NORTHPORT PIER   0024   20     360/ 18/ 21 1025.4R
SISTER BAY       0043   19     360/ 19/ 26   N/A
KEWAUNEE LAKESHO 0000   27     340/  1/  3 1022.5R
SHEBOYGAN LAKESH 0100   28      30/ 12/ 14 1024.5R
PORT WASHINGTON  0040   30      20/  7/ 13 1023.7R
MILWAUKEE LAKESH 0000   32      50/  9/ 10   N/A
KENOSHA   LAKESH 0100   33      90/  5/  8 1022.0S
$$

TC  - TEMPERATURE IN CELSIUS
VSB - VISIBILITY IN STATUTE MILES
WCI - WIND CHILL INDEX
HX  - HEAT INDEX




USA.gov is the U.S. government's official web portal to all federal, state and local government web resources and services.